Newark Heath, OH

7:34 PM EDT on April 24, 2018 (GMT -0400)
Newark Heath

Weather History for KVTA - September, 2013

Change the Weather History Date:

Friday, September 6, 2013

  Actual Average Record
Temperature  
Mean Temperature 58 °F -  
Max Temperature 75 °F 79 °F 98 °F (1954)
Min Temperature 44 °F 56 °F 38 °F (1984)
Degree Days  
Heating Degree Days 6    
Growing Degree Days 8 (Base 50)    
Moisture  
Dew Point 47 °F    
Average Humidity 81    
Maximum Humidity 100    
Minimum Humidity 34    
Precipitation  
Precipitation 0.00 in - - ()
Sea Level Pressure  
Sea Level Pressure 30.24 in    
Wind  
Wind Speed 0 mph (East)    
Max Wind Speed 7 mph    
Max Gust Speed -    
Visibility 6 miles    
Events Fog    
Averages and records for this station are not official NWS values.
T = Trace of Precipitation, MM = Missing Value Source: NWS Daily Summary

Daily Weather History Graph

Daily Weather History Graph

Search for Another Location

Airport or City:

Astronomy

Sep. 06, 2013 Rise Set
Actual Time 7:02 AM EDT 7:52 PM EDT
Civil Twilight 6:35 AM EDT 8:20 PM EDT
Nautical Twilight 6:02 AM EDT 8:52 PM EDT
Astronomical Twilight 5:28 AM EDT 9:26 PM EDT
Moon 8:13 AM EDT (9/6) 8:16 PM EDT (9/6)
Length of Visible Light 13h 45m
Length of Day
12h 50m
New Moon, 1% of the Moon is Illuminated
Sep 6
New Moon
Sep 12
First Quarter
Sep 19
Full
Sep 26
Last Quarter
Oct 4
New

Hourly Weather History & Observations

Time (EDT) Temp. Dew Point Humidity Pressure Visibility Wind Dir Wind Speed Gust Speed Precip Events Conditions
12:54 AM 57.0 °F 48.9 °F 74% 30.23 in 10.0 mi Calm Calm - N/A   Clear
1:54 AM 51.1 °F 48.0 °F 89% 30.24 in 10.0 mi Calm Calm - N/A   Clear
2:54 AM 50.0 °F 48.0 °F 93% 30.24 in 10.0 mi Calm Calm - N/A   Clear
3:54 AM 46.9 °F 45.0 °F 93% 30.25 in 9.0 mi Calm Calm - N/A   Clear
4:20 AM 46.4 °F 44.6 °F 93% 30.25 in 1.5 mi Calm Calm - N/A   Clear
4:26 AM 46.4 °F 46.4 °F 100% 30.25 in 0.5 mi Calm Calm - N/A Fog Fog
4:36 AM 46.4 °F 44.6 °F 93% 30.26 in 3.0 mi Calm Calm - N/A   Partly Cloudy
4:54 AM 46.9 °F 45.0 °F 93% 30.25 in 9.0 mi Calm Calm - N/A   Clear
5:02 AM 46.4 °F 46.4 °F 100% 30.26 in 1.5 mi Calm Calm - N/A   Clear
5:12 AM 46.4 °F 44.6 °F 93% 30.25 in 3.0 mi Calm Calm - N/A   Clear
5:35 AM 48.2 °F 46.4 °F 93% 30.26 in 1.8 mi Calm Calm - N/A   Clear
5:45 AM 46.4 °F 44.6 °F 93% 30.26 in 3.0 mi Calm Calm - N/A   Clear
5:50 AM 46.4 °F 44.6 °F 93% 30.26 in 1.8 mi Calm Calm - N/A   Clear
5:54 AM 45.0 °F 44.1 °F 97% 30.26 in 0.8 mi Calm Calm - N/A   Clear
6:01 AM 46.4 °F 44.6 °F 93% 30.27 in 0.5 mi Calm Calm - N/A Fog Fog
6:27 AM 44.6 °F 44.6 °F 100% 30.26 in 1.0 mi Calm Calm - N/A   Clear
6:37 AM 44.6 °F 42.8 °F 93% 30.26 in 0.8 mi Calm Calm - N/A   Clear
6:54 AM 46.0 °F 44.1 °F 93% 30.26 in 0.8 mi Calm Calm - N/A   Clear
6:58 AM 46.4 °F 44.6 °F 93% 30.26 in 2.0 mi Calm Calm - N/A   Clear
7:05 AM 46.4 °F 44.6 °F 93% 30.27 in 7.0 mi Calm Calm - N/A   Clear
7:27 AM 46.4 °F 44.6 °F 93% 30.27 in 1.8 mi Calm Calm - N/A   Clear
7:36 AM 46.4 °F 44.6 °F 93% 30.27 in 0.8 mi Calm Calm - N/A   Clear
7:40 AM 46.4 °F 44.6 °F 93% 30.28 in 2.5 mi Calm Calm - N/A   Clear
7:47 AM 46.4 °F 46.4 °F 100% 30.28 in 3.0 mi Calm Calm - N/A   Clear
7:50 AM 46.4 °F 46.4 °F 100% 30.28 in 1.5 mi Calm Calm - N/A   Clear
7:54 AM 48.0 °F 46.0 °F 93% 30.28 in 1.2 mi Calm Calm - N/A   Clear
8:01 AM 48.2 °F 46.4 °F 93% 30.28 in 3.0 mi Calm Calm - N/A   Clear
8:54 AM 55.9 °F 51.1 °F 84% 30.27 in 10.0 mi Calm Calm - N/A   Clear
9:54 AM 61.0 °F 51.1 °F 70% 30.27 in 10.0 mi East 4.6 mph - N/A   Clear
10:54 AM 64.9 °F 48.9 °F 56% 30.27 in 10.0 mi East 5.8 mph - N/A   Clear
11:54 AM 68.0 °F 48.9 °F 50% 30.26 in 10.0 mi Calm Calm - N/A   Clear
12:54 PM 70.0 °F 48.9 °F 47% 30.23 in 10.0 mi Variable 4.6 mph - N/A   Clear
1:54 PM 73.0 °F 46.0 °F 38% 30.22 in 10.0 mi East 6.9 mph - N/A   Clear
2:54 PM 73.0 °F 44.1 °F 35% 30.20 in 10.0 mi Variable 4.6 mph - N/A   Clear
3:54 PM 73.9 °F 45.0 °F 35% 30.17 in 10.0 mi Calm Calm - N/A   Clear
4:54 PM 73.9 °F 44.1 °F 34% 30.16 in 10.0 mi Variable 3.5 mph - N/A   Clear
5:54 PM 73.9 °F 46.0 °F 37% 30.16 in 10.0 mi Calm Calm - N/A   Clear
6:54 PM 72.0 °F 53.1 °F 51% 30.15 in 10.0 mi Calm Calm - N/A   Clear
7:54 PM 62.1 °F 53.1 °F 72% 30.16 in 10.0 mi Calm Calm - N/A   Clear
8:54 PM 57.0 °F 54.0 °F 89% 30.15 in 10.0 mi Calm Calm - N/A   Clear
9:54 PM 54.0 °F 51.1 °F 90% 30.15 in 10.0 mi Calm Calm - N/A   Clear
10:54 PM 53.1 °F 51.1 °F 93% 30.14 in 10.0 mi Calm Calm - N/A   Clear
11:54 PM 52.0 °F 50.0 °F 93% 30.13 in 10.0 mi Calm Calm - N/A   Clear